Regional Weather Roundup
Issued by NWS

Home | Current Version | Previous Version | Text Only | Print | Product List | Glossary Off
Versions: 1 2 3 4 5 6 7 8 9 10 11 12 13 14 15 16 17 18 19 20 21 22 23 24 25 26 27 28 29 30 31 32 33 34 35 36 37 38 39 40 41 42 43 44 45 46 47 48 49 50

290
ASUS43 KBIS 252131
RWRND
NORTH DAKOTA REGIONAL WEATHER ROUNDUP
NATIONAL WEATHER SERVICE EASTERN NORTH DAKOTA/GRAND FORKS ND
400 PM CDT FRI MAY 25 2018

  NOTE: "FAIR" INDICATES FEW OR NO CLOUDS BELOW 12,000 FEET WITH NO
  SIGNIFICANT WEATHER AND/OR OBSTRUCTIONS TO VISIBILITY.

NDZ001>003-009>011-017-252200-
...NORTHWEST NORTH DAKOTA...

CITY           SKY/WX    TMP DP  RH WIND       PRES   REMARKS
WILLISTON      FAIR      86  47  25 W14G28    29.74S
MINOT          FAIR      91  44  19 W16G29    29.66F
MINOT AFB      FAIR      89  44  20 W24G35    29.64F
$$

NDZ018>021-031>035-040>046-252200-
...SOUTHWEST NORTH DAKOTA...

CITY           SKY/WX    TMP DP  RH WIND       PRES   REMARKS
BISMARCK       FAIR      91  49  23 W17G23    29.71F
DICKINSON      FAIR      86  46  24 NW22G29   29.78F
GARRISON         N/A     88  45  22 NW21G36   29.70S
HETTINGER      FAIR      84  48  28 W21G28    29.84F
$$

NDZ004>008-012>016-024-026-027-054-252200-
...NORTHEAST NORTH DAKOTA...

CITY           SKY/WX    TMP DP  RH WIND       PRES   REMARKS
GRAND FORKS    PTSUNNY   93  52  24 SW20G26   29.57F HX  90
GRAND FORKS AF PTSUNNY   93  52  24 NW14      29.58F HX  90
DEVILS LAKE    FAIR      90  51  26 W21       29.62F
$$

NDZ022-023-025-028>030-036>039-047>053-252200-
...SOUTHEAST NORTH DAKOTA...

CITY           SKY/WX    TMP DP  RH WIND       PRES   REMARKS
JAMESTOWN      FAIR      88  55  32 W13G24    29.67F
FARGO          PTSUNNY   91  50  24 SW13G23   29.62F
WAHPETON       FAIR      91  43  18 W14G22    29.65F
$$




USA.gov is the U.S. government's official web portal to all federal, state and local government web resources and services.